STARLINK-32393, 61862

Orbit data source: Space-Track

STARLINK-32393, 61862 is a payload satellite owned by SpaceX/Seattle (US) in LEO that was launched on Thu, 07 Nov 2024 UTC via an FALCON 9 launch vehicle from the Air Force Eastern Test Range (AFETR). Payload-class satellites include a variety of spacecraft equipped with specific instruments for various scientific and technological missions. These include communications satellites like Starlink; space stations such as the ISS; scientific satellites like the Hubble; Earth observation satellites from companies like Planet Labs, Umbra, and HawkEye 360; GPS; miniature CubeSats for education and research; and military/defense satellites.

Loading next visibility...
Identifier
61862, 2024-202T
Orbit
LEO
Country
Flag of USUS
Related business
Manufacturer
SpaceX/Seattle
Mission
Operational Commercial Communications
Bus & Motor
STARLINK V2M, Unknown motor
Mass
730 kg wet, ~700 kg dry
Launch date (UTC)
2024-11-07 (11 months ago)
Launch vehicle
FALCON 9
Launch site
Air Force Eastern Test Range (AFETR)
Object type
Payload
Rocket body
Debris
Shape & HBR
Box + 2 Pan, 17.7 m
Radar Cross Section
33.884 m², Large (>1 m²)

Expand to show TLE details & history
Last TLE update: 11 hours ago

TLE from 11 hours ago
0 STARLINK-32393
1 61862U 24202T   25286.54890537  .00001574  00000-0  66753-4 0  9995
2 61862  43.0001 349.0250 0001149 290.7080  69.3649 15.27562326 52831
Epoch: 2025-10-13T13:10Z
TLE epoch observation values (Epoch: 2025-10-13T13:10:25.423Z)
Latitude
Longitude
129.06898°
Altitude
482.6 km
Speed
7.626 km/s
True Right ascension
23h 16m 06s
True Declination
0° 00' 00"
Sunlit
Object was in full shadow at epoch
Visualization orbit readout
Latitude
Unknown
Longitude
Unknown
Altitude
Unknown
Speed
Unknown
Apparent Right ascension
Unknown
Apparent Declination
Unknown
Sunlit
N/A
Visualization observer readout
Local Sidereal Time
18:49:16
Azimuth
Unknown
Elevation
Unknown
Doppler factor
Unknown
Orbital elements
Apogee altitude
485.836 km
Perigee altitude
484.259 km
Semi-major axis
6,863.184 km
Eccentricity
0.00011
Inclination
43.0001°
RAAN
349.025°
Arg. of periapsis
290.708°
True anomaly
69.37722°
Mean anomaly
69.3649°
Eccentric anomaly
69.37106°
Mean motion
3.81729 °/min
Orbital period
94.31 mins
BSTAR
0.000066753
Loading maneuver chart data...
Computing Atmospheric mass density...
Loading historical data...
Loading historical data...
Loading historical data...
Loading historical data...
Loading historical data...
Loading historical data...
Loading historical data...

Documentation

Showing up to 5 results
|